Location: Bouillancy
(49.1149°N, 2.9308°E)
Time: 08:13:06
(UTC+00:00)

TSX-5 - Pass Details

Date: 30 September 2020
Orbit: 400 x 1330 km, 68.9° (Epoch: 29 October)

Event Time Altitude Azimuth Distance (km) Brightness Sun altitude
Rises 18:15:42 0° 204° (SSW) 2,626 7.5 -8.6°
Reaches altitude 10° 18:17:38 10° 202° (SSW) 1,840 6.7 -8.9°
Maximum altitude 18:21:43 73° 118° (ESE) 692 4.1 -9.6°
Drops below altitude 10° 18:27:04 10° 35° (NE) 2,400 6.8 -10.4°
Sets 18:29:52 0° 33° (NNE) 3,505 7.7 -10.9°
